User: anonymous   Login
Location: Unspecified
(0.0000°N, 0.0000°E)
Time: 09:10:17
(UTC+00:00)
Language:

TDS 1 - Orbit

View from above orbital plane
View from above orbital plane
View from above satellite
View from above satellite

Ground track
Ground track

The orbit data is extracted from the following two-line orbital elements,

1 40076U 14037H   18018.71565446  .00000021  00000-0  10043-4 0  9993
2 40076  98.3497 143.5349 0007458  97.4780 262.7282 14.81387846190938
Epoch (UTC): 18 January 2018 17:10:32
Eccentricity: 0.0007458
inclination: 98.3497°
perigee height: 620 km
apogee height: 630 km
right ascension of ascending node: 143.5349°
argument of perigee: 97.4780°
revolutions per day: 14.81387846
mean anomaly at epoch: 262.7282°
orbit number at epoch: 19093

The dashed part of the orbit path shows where the satellite is in the earth's shadow,  

DLR